Regional Weather Roundup
Issued by NWS

Home | Current Version | Previous Version | Graphics & Text | Print | Product List | Glossary On
Versions: 1 2 3 4 5 6 7 8 9 10 11 12 13 14 15 16 17 18 19 20 21 22 23 24 25 26 27 28 29 30 31 32 33 34 35 36 37 38 39 40 41 42 43 44 45 46 47 48 49 50
000
ASUS45 KSLC 230610
RWRUT

UTAH REGIONAL WEATHER ROUNDUP
NATIONAL WEATHER SERVICE SALT LAKE CITY UT
1200 AM MDT THU MAR 23 2017

UTZ001>011-023>025-230700-

NORTHERN UTAH

CITY           SKY/WX    TMP DP  RH WIND       PRES   REMARKS
BRIGHAM CITY     N/A     48  42  79 NW8       29.75F
HILL AFB       MOCLDY    47  43  85 NW13      29.74F
LOGAN          CLOUDY    47  43  86 N9        29.78S
OGDEN          CLOUDY    47  42  83 N14       29.74S
SALT LAKE CITY LGT RAIN  50  44  80 VRB7      29.73R
WENDOVER       CLOUDY    46  28  49 NW12      29.82R
HEBER CITY     CLOUDY    45  39  81 NW7       29.75F

$$

UTZ011>015-024>027-230700-

CENTRAL/NORTHEAST UTAH

CITY           SKY/WX    TMP DP  RH WIND       PRES   REMARKS
PROVO AIRPORT  NOT AVBL
MOAB/CANYONLAN PTCLDY    51  41  68 NW10      29.75F
DELTA          CLOUDY    50  34  53 S16       29.75R
PRICE          LGT RAIN  43  42  97 E15       29.80F
ROOSEVELT      RAIN      45  41  87 SE9       29.84F
VERNAL         RAIN      45  39  79 W8        29.83S

$$

UTZ013>016-019>022-027-230700-

SOUTHERN UTAH

CITY           SKY/WX    TMP DP  RH WIND       PRES   REMARKS
BRYCE CANYON   CLOUDY    36  31  82 S15       29.88R WCI  27
CEDAR CITY     CLOUDY    40  36  86 SW8       29.85R WCI  34
MILFORD        CLOUDY   N/A N/A N/A S16       29.77F
ST GEORGE      CLOUDY    54  42  64 E9        29.82F
HANKSVILLE     CLOUDY    52  43  71 W6        29.77S
BLANDING       MOCLDY    54  29  39 S12       29.89S

$$

REGIONAL REPORTS     COLORADO/ARIZONA

CITY           SKY/WX    TMP DP  RH WIND       PRES   REMARKS
CRAIG, CO      CLOUDY    45  31  58 SE6       29.82F
GRAND JUNCTION CLOUDY    59  30  33 NW12      29.77R
RIFLE, CO      CLOUDY    49  36  61 N3        29.79F
MONTROSE, CO   CLOUDY    53  25  33 W9        29.84R
CORTEZ, CO     CLOUDY    55  21  26 SW12      29.86S
COLORADO CITY  RAIN      45  41  87 S13G18    29.91F
PAGE, AZ       LGT RAIN  47  50 100 VRB5      29.87R
GRAND CANYON   FLURRIES  34  34 100 CALM      29.93F
KINGMAN, AZ    CLOUDY    48  41  76 E8        29.87F
FLAGSTAFF, AZ  LGT SNOW  33  32  96 W6        29.94R FOG     WCI  28

$$

REGIONAL REPORTS    NEVADA/IDAHO/WYOMING

CITY           SKY/WX    TMP DP  RH WIND       PRES   REMARKS
LAS VEGAS, NV  MOCLDY    58  24  27 SW15G29   29.77R
ELY, NY        CLOUDY    38  30  73 NW8       29.83S WCI  32
ELKO, NV       CLOUDY    34  32  92 S3        29.90S
POCATELLO, ID  CLOUDY    43  39  86 SW8       29.84F
BURLEY, ID     CLOUDY    42  35  76 W6        29.83F
FORT BRIDGER,  CLOUDY    40  40  98 NE12      29.85F WCI  33
EVANSTON, WY   FOG       37  34  89 N8        29.80F VSB 1/4 WCI  31
ROCK SPRINGS,  RAIN      40  35  83 W10       29.85F WCI  33
KEMMERER, WY   LGT RAIN  34  34 100 N7        29.84F WCI  28

$$



USA.gov is the U.S. government's official web portal to all federal, state and local government web resources and services.